sat.trackr.live / text

‹ back to catalog

UNKNOWN

NORAD 87320

UNKNOWN UNKNOWN UNKNOWN

§ Identity

Operator
Country
Launch date
Launch site
Launch vehicle
Mass (kg)
RCS (m²)

External: N2YO · Heavens-Above

§ Orbital elements

Epoch: 2026-09-17T01:13:15.892896Z

Period
105.04 min
Inclination
66.5922°
Eccentricity
0.0424047
Mean motion
13.70886275 rev/d
Perigee alt
683.7 km
Apogee alt
1,309.1 km
Semi-major
7,374.5 km
B*
3.7368e-4
RAAN
139.7415°
Arg perigee
238.1184°
Mean anomaly
117.7967°
Rev number
63,188

§ Raw data

UNKNOWN1 87320U          26260.05087839  .00000554  00000+0  37368-3 0  99992 87320  66.5922 139.7415 0424047 238.1184 117.7967 13.70886275631881

JSON: /api/v1/satellites/87320 · /tle

For live sub-satellite position, see the globe view (requires WebGL).

§ Visibility from observer

Set your observer location to see the next 7 days of passes ≥ 10°. The values pass through the URL so the page stays shareable.

No JS? Fill the form by hand. The geolocation button needs JavaScript.